This is the latest recevied weather packets stored in our database for station/object IZ5MMH-4. If no packets are shown the sender has not sent any weather packets the latest 10 day(s).
| Time | Temp. | Humidity | Pressure | Rain* | Wind** | Luminosity | Snow |
|---|---|---|---|---|---|---|---|
| 1787421863 | 29.44° C | 42% | 1016.1 hPa | - | - | - | - |
| 1787421263 | 29.44° C | 42% | 1016.1 hPa | - | - | - | - |
| 1787420664 | 29.44° C | 41% | 1016.1 hPa | - | - | - | - |
| 1787420063 | 29.44° C | 41% | 1016 hPa | - | - | - | - |
| 1787419463 | 30° C | 40% | 1016.1 hPa | - | - | - | - |
| 1787418864 | 30° C | 40% | 1016.2 hPa | - | - | - | - |
| 1787418264 | 30° C | 40% | 1016.2 hPa | - | - | - | - |
| 1787417664 | 30° C | 40% | 1016.2 hPa | - | - | - | - |
| 1787417063 | 30° C | 40% | 1016.2 hPa | - | - | - | - |
| 1787416464 | 30.56° C | 38% | 1016.2 hPa | - | - | - | - |
| 1787415864 | 30.56° C | 36% | 1016.2 hPa | - | - | - | - |
| 1787415264 | 31.11° C | 36% | 1016.2 hPa | - | - | - | - |
| 1787414663 | 31.67° C | 35% | 1016.2 hPa | - | - | - | - |
| 1787414064 | 31.67° C | 37% | 1016.2 hPa | - | - | - | - |
| 1787413463 | 31.11° C | 38% | 1016.2 hPa | - | - | - | - |
| 1787412864 | 31.11° C | 38% | 1016.2 hPa | - | - | - | - |
| 1787412264 | 31.11° C | 42% | 1016.2 hPa | - | - | - | - |
| 1787411664 | 31.11° C | 41% | 1016.3 hPa | - | - | - | - |
| 1787411064 | 31.11° C | 41% | 1016.2 hPa | - | - | - | - |
| 1787410466 | 31.11° C | 43% | 1016.1 hPa | - | - | - | - |
| 1787409864 | 31.11° C | 45% | 1016 hPa | - | - | - | - |
| 1787409264 | 31.11° C | 44% | 1016 hPa | - | - | - | - |
| 1787408664 | 31.11° C | 44% | 1016.2 hPa | - | - | - | - |
| 1787408064 | 31.11° C | 44% | 1016.2 hPa | - | - | - | - |
| 1787407464 | 31.11° C | 44% | 1016.1 hPa | - | - | - | - |
* Rain since midnight (hover to see other rain measurements)
** Current wind speed in m/s (hover to see current wind gust speed)